,,,PA_Meas_PMT16A,,PR_Meas_QMR101_102,,RH_Meas_QMH101,,SR_Meas_QMS101,,TA_Meas_QMH101,,GenWind,,GenWind,
date,time,status,PA,status,PR,status,RH,status,SR,status,TA,status,DirAvg,status,SpdAvg,
2009-02-06, 00:00:04,VALID,1002.57,VALID,0,VALID,87.488,VALID,0,VALID,25.3974,VALID,328,VALID,0.7625,
2009-02-06, 00:01:04,VALID,1002.57,VALID,0,VALID,87.2591,VALID,0,VALID,25.376,VALID,350,VALID,0.458984,
2009-02-06, 00:02:04,VALID,1002.55,VALID,0,VALID,87.4041,VALID,0,VALID,25.4169,VALID,252,VALID,0.255469,
2009-02-06, 00:03:04,VALID,1002.54,VALID,0,VALID,87.2057,VALID,0,VALID,25.4169,VALID,325,VALID,0.670313,
2009-02-06, 00:04:04,VALID,1002.53,VALID,0,VALID,87.2134,VALID,0,VALID,25.4169,VALID,310,VALID,0.561328,
2009-02-06, 00:05:04,VALID,1002.54,VALID,0,VALID,86.9845,VALID,0,VALID,25.4169,VALID,342,VALID,1.06758,
2009-02-06, 00:06:04,VALID,1002.53,VALID,0,VALID,86.9845,VALID,0,VALID,25.4169,VALID,339,VALID,0.855469,
2009-02-06, 00:07:04,VALID,1002.53,VALID,0,VALID,87.076,VALID,0.100563,VALID,25.4169,VALID,346,VALID,0.526953,
2009-02-06, 00:08:04,VALID,1002.54,VALID,0,VALID,86.9082,VALID,0,VALID,25.3955,VALID,343,VALID,0.835938,
2009-02-06, 00:09:04,VALID,1002.52,VALID,0,VALID,86.9158,VALID,0.100563,VALID,25.3955,VALID,342,VALID,0.814062,
2009-02-06, 00:10:04,VALID,1002.53,VALID,0,VALID,87.0074,VALID,0,VALID,25.4344,VALID,319,VALID,0.426172,
2009-02-06, 00:11:04,VALID,1002.49,VALID,0,VALID,86.7861,VALID,0.100563,VALID,25.4363,VALID,339,VALID,0.823828,
2009-02-06, 00:12:04,VALID,1002.5,VALID,0,VALID,86.7785,VALID,0,VALID,25.4363,VALID,357,VALID,1.26719,
2009-02-06, 00:13:04,VALID,1002.47,VALID,0,VALID,86.7785,VALID,0,VALID,25.4558,VALID,360,VALID,0.650391,
2009-02-06, 00:14:04,VALID,1002.47,VALID,0,VALID,86.7175,VALID,0,VALID,25.4344,VALID,352,VALID,0.902344,
2009-02-06, 00:15:04,VALID,1002.42,VALID,0,VALID,86.748,VALID,0,VALID,25.4558,VALID,341,VALID,0.711719,
2009-02-06, 00:16:04,VALID,1002.4,VALID,0,VALID,86.7099,VALID,0,VALID,25.4753,VALID,354,VALID,0.729688,
2009-02-06, 00:17:04,VALID,1002.38,VALID,0,VALID,86.6565,VALID,0,VALID,25.4344,VALID,345,VALID,1.03086,
2009-02-06, 00:18:04,VALID,1002.34,VALID,0,VALID,86.6412,VALID,0.100563,VALID,25.4753,VALID,350,VALID,0.796484,
2009-02-06, 00:19:04,VALID,1002.34,VALID,0,VALID,86.9311,VALID,0,VALID,25.4558,VALID,10,VALID,0.793359,
2009-02-06, 00:20:04,VALID,1002.3,VALID,0,VALID,87.0226,VALID,0,VALID,25.4558,VALID,343,VALID,0.104687,
2009-02-06, 00:21:04,VALID,1002.29,VALID,0,VALID,86.9464,VALID,0,VALID,25.4558,VALID,349,VALID,0.601563,
2009-02-06, 00:22:04,VALID,1002.27,VALID,0,VALID,86.8701,VALID,0,VALID,25.4558,VALID,338,VALID,0.752344,
2009-02-06, 00:23:04,VALID,1002.25,VALID,0,VALID,86.9387,VALID,0,VALID,25.4558,VALID,344,VALID,0.555859,
2009-02-06, 00:24:04,VALID,1002.25,VALID,0,VALID,87.076,VALID,0.100563,VALID,25.4149,VALID,343,VALID,0.664063,
2009-02-06, 00:25:04,VALID,1002.2,VALID,0,VALID,86.7022,VALID,0,VALID,25.4558,VALID,347,VALID,1.5168,
2009-02-06, 00:26:04,VALID,1002.23,VALID,0,VALID,86.9006,VALID,0,VALID,25.4558,VALID,332,VALID,0.463281,
2009-02-06, 00:27:04,VALID,1002.21,VALID,0,VALID,86.7022,VALID,0,VALID,25.4558,VALID,342,VALID,1.14453,
2009-02-06, 00:28:04,VALID,1002.17,VALID,0,VALID,86.9158,VALID,0,VALID,25.4558,VALID,329,VALID,0.575781,
2009-02-06, 00:29:04,VALID,1002.14,VALID,0,VALID,86.9082,VALID,0.100563,VALID,25.4558,VALID,343,VALID,0.291406,
2009-02-06, 00:30:04,VALID,1002.11,VALID,0,VALID,87.1142,VALID,0,VALID,25.4753,VALID,339,VALID,0.35,
2009-02-06, 00:31:04,VALID,1002.13,VALID,0,VALID,87.2057,VALID,0,VALID,25.4558,VALID,338,VALID,0.411719,
2009-02-06, 00:32:04,VALID,1002.09,VALID,0,VALID,87.16,VALID,0,VALID,25.4169,VALID,316,VALID,0.329297,
2009-02-06, 00:33:04,VALID,1002.07,VALID,0,VALID,87.1905,VALID,0,VALID,25.4169,VALID,350,VALID,0.134766,
2009-02-06, 00:34:04,VALID,1002.06,VALID,0,VALID,86.8624,VALID,0,VALID,25.4577,VALID,355,VALID,0.814844,
2009-02-06, 00:35:04,VALID,1002.01,VALID,0,VALID,86.9921,VALID,0,VALID,25.4169,VALID,350,VALID,0.667188,
2009-02-06, 00:36:04,VALID,1002.01,VALID,0,VALID,87.1142,VALID,0,VALID,25.4169,VALID,348,VALID,0.213281,
2009-02-06, 00:37:04,VALID,1001.97,VALID,0,VALID,86.9769,VALID,0,VALID,25.4169,VALID,279,VALID,0.338281,
2009-02-06, 00:38:04,VALID,1001.93,VALID,0,VALID,86.748,VALID,0.100563,VALID,25.4169,VALID,353,VALID,1.20273,
2009-02-06, 00:39:04,VALID,1001.92,VALID,0,VALID,86.8777,VALID,0,VALID,25.4169,VALID,327,VALID,0.469141,
2009-02-06, 00:40:04,VALID,1001.9,VALID,0,VALID,87.2057,VALID,0,VALID,25.4363,VALID,2,VALID,0.173828,
2009-02-06, 00:41:04,VALID,1001.88,VALID,0,VALID,87.076,VALID,0.100563,VALID,25.3955,VALID,325,VALID,0.442969,
2009-02-06, 00:42:04,VALID,1001.84,VALID,0,VALID,86.9692,VALID,0,VALID,25.3974,VALID,310,VALID,0.458594,
2009-02-06, 00:43:04,VALID,1001.81,VALID,0,VALID,86.9845,VALID,0,VALID,25.3974,VALID,337,VALID,0.525781,
2009-02-06, 00:44:04,VALID,1001.78,VALID,0,VALID,87.0379,VALID,0,VALID,25.3779,VALID,350,VALID,0.742578,
2009-02-06, 00:45:04,VALID,1001.75,VALID,0,VALID,87.0303,VALID,0,VALID,25.3584,VALID,346,VALID,0.587891,
2009-02-06, 00:46:04,VALID,1001.74,VALID,0,VALID,86.954,VALID,0,VALID,25.3779,VALID,337,VALID,0.499219,
2009-02-06, 00:47:04,VALID,1001.74,VALID,0,VALID,86.9158,VALID,0,VALID,25.3974,VALID,354,VALID,0.596094,
2009-02-06, 00:48:04,VALID,1001.75,VALID,0,VALID,86.7861,VALID,0,VALID,25.4383,VALID,350,VALID,0.440234,
2009-02-06, 00:49:04,VALID,1001.72,VALID,0,VALID,86.8319,VALID,0.100563,VALID,25.4169,VALID,5,VALID,0.403906,
2009-02-06, 00:50:04,VALID,1001.68,VALID,0,VALID,86.7251,VALID,0,VALID,25.4363,VALID,338,VALID,0.899219,
2009-02-06, 00:51:04,VALID,1001.69,VALID,0,VALID,86.748,VALID,0.100563,VALID,25.4169,VALID,350,VALID,0.526563,
2009-02-06, 00:52:04,VALID,1001.68,VALID,0,VALID,86.7099,VALID,0.100563,VALID,25.4169,VALID,352,VALID,0.494922,
2009-02-06, 00:53:04,VALID,1001.66,VALID,0,VALID,86.809,VALID,0,VALID,25.3955,VALID,348,VALID,0.648828,
2009-02-06, 00:54:04,VALID,1001.67,VALID,0,VALID,86.6107,VALID,0,VALID,25.4383,VALID,8,VALID,0.754687,
2009-02-06, 00:55:04,VALID,1001.63,VALID,0,VALID,86.7709,VALID,0,VALID,25.4363,VALID,357,VALID,0.332812,
2009-02-06, 00:56:04,VALID,1001.6,VALID,0,VALID,86.6488,VALID,0,VALID,25.4363,VALID,293,VALID,0.868359,
2009-02-06, 00:57:04,VALID,1001.63,VALID,0,VALID,86.7938,VALID,0,VALID,25.4169,VALID,342,VALID,0.553906,
2009-02-06, 00:58:04,VALID,1001.6,VALID,0,VALID,86.7633,VALID,0,VALID,25.4363,VALID,335,VALID,0.675,
2009-02-06, 00:59:04,VALID,1001.61,VALID,0,VALID,87.16,VALID,0,VALID,25.4149,VALID,332,VALID,0.126953,
2009-02-06, 01:00:04,VALID,1001.6,VALID,0,VALID,86.8777,VALID,0,VALID,25.4169,VALID,352,VALID,0.39375,
2009-02-06, 01:01:04,VALID,1001.6,VALID,0,VALID,86.3589,VALID,0.100563,VALID,25.3955,VALID,349,VALID,1.30469,
2009-02-06, 01:02:04,VALID,1001.58,VALID,0,VALID,86.4276,VALID,0.100563,VALID,25.4169,VALID,353,VALID,0.989844,
2009-02-06, 01:03:04,VALID,1001.56,VALID,0,VALID,86.4123,VALID,0,VALID,25.4363,VALID,333,VALID,1.1293,
2009-02-06, 01:04:04,VALID,1001.51,VALID,0,VALID,86.5115,VALID,0.100563,VALID,25.4363,VALID,358,VALID,0.85,
2009-02-06, 01:05:04,VALID,1001.53,VALID,0,VALID,86.3666,VALID,0,VALID,25.4169,VALID,347,VALID,1.02305,
2009-02-06, 01:06:04,VALID,1001.5,VALID,0,VALID,86.6641,VALID,0,VALID,25.3974,VALID,354,VALID,0.641016,
2009-02-06, 01:07:04,VALID,1001.48,VALID,0,VALID,86.8014,VALID,0,VALID,25.3779,VALID,357,VALID,0.592188,
2009-02-06, 01:08:04,VALID,1001.46,VALID,0,VALID,86.7175,VALID,0,VALID,25.3779,VALID,333,VALID,0.828125,
2009-02-06, 01:09:04,VALID,1001.44,VALID,0,VALID,86.5191,VALID,0,VALID,25.3584,VALID,355,VALID,0.986328,
2009-02-06, 01:10:04,VALID,1001.46,VALID,0,VALID,86.5725,VALID,0,VALID,25.3584,VALID,5,VALID,0.51875,
2009-02-06, 01:11:04,VALID,1001.44,VALID,0,VALID,86.8548,VALID,0.100563,VALID,25.3584,VALID,357,VALID,0.156641,
2009-02-06, 01:12:04,VALID,1001.44,VALID,0,VALID,86.8167,VALID,0,VALID,25.3584,VALID,299,VALID,0.584766,
2009-02-06, 01:13:04,VALID,1001.43,VALID,0,VALID,86.5878,VALID,0,VALID,25.339,VALID,2,VALID,0.875391,
2009-02-06, 01:14:04,VALID,1001.42,VALID,0,VALID,86.6336,VALID,0,VALID,25.339,VALID,304,VALID,0.589063,
2009-02-06, 01:15:04,VALID,1001.4,VALID,0,VALID,86.6259,VALID,0,VALID,25.3604,VALID,331,VALID,0.467969,
2009-02-06, 01:16:04,VALID,1001.4,VALID,0,VALID,86.8624,VALID,0,VALID,25.3409,VALID,328,VALID,0.388672,
2009-02-06, 01:17:04,VALID,1001.36,VALID,0,VALID,86.7556,VALID,0,VALID,25.3,VALID,354,VALID,0.676172,
2009-02-06, 01:18:04,VALID,1001.35,VALID,0,VALID,86.9158,VALID,0,VALID,25.2806,VALID,354,VALID,0.717969,
2009-02-06, 01:19:04,VALID,1001.33,VALID,0,VALID,86.9692,VALID,0,VALID,25.2806,VALID,271,VALID,0.491406,
2009-02-06, 01:20:04,VALID,1001.29,VALID,0,VALID,87.0989,VALID,0,VALID,25.2416,VALID,323,VALID,0.608984,
2009-02-06, 01:21:04,VALID,1001.28,VALID,0,VALID,87.2744,VALID,0,VALID,25.2416,VALID,343,VALID,0.221094,
2009-02-06, 01:22:04,VALID,1001.26,VALID,0,VALID,87.2591,VALID,0,VALID,25.2027,VALID,339,VALID,0.233203,
2009-02-06, 01:23:04,VALID,1001.19,VALID,0,VALID,87.1294,VALID,0,VALID,25.2027,VALID,346,VALID,0.358984,
2009-02-06, 01:24:04,VALID,1001.16,VALID,0,VALID,87.2591,VALID,0,VALID,25.1637,VALID,293,VALID,0.151172,
2009-02-06, 01:25:04,VALID,1001.1,VALID,0,VALID,87.2591,VALID,0,VALID,25.1637,VALID,357,VALID,0.604297,
2009-02-06, 01:26:04,VALID,1001.06,VALID,0,VALID,87.1981,VALID,0,VALID,25.1423,VALID,7,VALID,0.451172,
2009-02-06, 01:27:04,VALID,1001.02,VALID,0,VALID,87.2057,VALID,0,VALID,25.1637,VALID,343,VALID,0.255469,
2009-02-06, 01:28:04,VALID,1001.01,VALID,0,VALID,86.954,VALID,0,VALID,25.1637,VALID,355,VALID,0.865625,
2009-02-06, 01:29:04,VALID,1000.98,VALID,0,VALID,86.7556,VALID,0,VALID,25.1832,VALID,343,VALID,0.846094,
2009-02-06, 01:30:04,VALID,1000.96,VALID,0,VALID,86.7175,VALID,0,VALID,25.2221,VALID,335,VALID,0.722266,
2009-02-06, 01:31:04,VALID,1000.94,VALID,0,VALID,86.7938,VALID,0,VALID,25.2221,VALID,352,VALID,0.229687,
2009-02-06, 01:32:04,VALID,1000.96,VALID,0,VALID,86.8395,VALID,0,VALID,25.2416,VALID,352,VALID,0.373828,
2009-02-06, 01:33:04,VALID,1000.95,VALID,0,VALID,87.0226,VALID,0,VALID,25.2221,VALID,352,VALID,0.426172,
2009-02-06, 01:34:04,VALID,1000.9,VALID,0,VALID,87.2515,VALID,0,VALID,25.1637,VALID,353,VALID,0.489844,
2009-02-06, 01:35:04,VALID,1000.89,VALID,0,VALID,87.6787,VALID,0,VALID,25.1248,VALID,353,VALID,0.426562,
2009-02-06, 01:36:04,VALID,1000.83,VALID,0,VALID,87.9762,VALID,0,VALID,25.0255,VALID,15,VALID,0.73125,
2009-02-06, 01:37:04,VALID,1000.79,VALID,0,VALID,88.3424,VALID,0,VALID,24.9282,VALID,15,VALID,0.35,
2009-02-06, 01:38:04,VALID,1000.77,VALID,0,VALID,88.6628,VALID,0,VALID,24.8716,VALID,15,VALID,0.658203,
2009-02-06, 01:39:04,VALID,1000.76,VALID,0,VALID,89.1511,VALID,0.100563,VALID,24.8327,VALID,15,VALID,0.304297,
2009-02-06, 01:40:04,VALID,1000.76,VALID,0,VALID,89.2808,VALID,0.100563,VALID,24.7529,VALID,3,VALID,0.449609,
2009-02-06, 01:41:04,VALID,1000.78,VALID,0,VALID,89.4028,VALID,0,VALID,24.7353,VALID,354,VALID,0.299609,
2009-02-06, 01:42:04,VALID,1000.83,VALID,0,VALID,89.5631,VALID,0,VALID,24.7159,VALID,354,VALID,0,
2009-02-06, 01:43:04,VALID,1000.83,VALID,0,VALID,89.6546,VALID,0,VALID,24.6964,VALID,354,VALID,0.225,
2009-02-06, 01:44:04,VALID,1000.84,VALID,0,VALID,89.6699,VALID,0,VALID,24.6964,VALID,322,VALID,0.308203,
2009-02-06, 01:45:04,VALID,1000.86,VALID,0,VALID,89.6088,VALID,0.100563,VALID,24.7159,VALID,339,VALID,0.290234,
2009-02-06, 01:46:04,VALID,1000.86,VALID,0,VALID,89.2579,VALID,0.100563,VALID,24.7353,VALID,349,VALID,1.06016,
2009-02-06, 01:47:04,VALID,1000.87,VALID,0,VALID,89.0977,VALID,0,VALID,24.8346,VALID,243,VALID,0.442187,
2009-02-06, 01:48:04,VALID,1000.89,VALID,0,VALID,88.8612,VALID,0,VALID,24.8522,VALID,24,VALID,0.364062,
2009-02-06, 01:49:04,VALID,1000.86,VALID,0,VALID,88.6857,VALID,0.100563,VALID,24.8911,VALID,346,VALID,0.54375,
2009-02-06, 01:50:04,VALID,1000.85,VALID,0,VALID,88.3424,VALID,0.100563,VALID,24.9282,VALID,278,VALID,0.349609,
2009-02-06, 01:51:04,VALID,1000.85,VALID,0,VALID,88.2661,VALID,0.100563,VALID,24.969,VALID,343,VALID,0.525391,
2009-02-06, 01:52:04,VALID,1000.83,VALID,0,VALID,88.0068,VALID,0,VALID,24.9885,VALID,346,VALID,0.861328,
2009-02-06, 01:53:04,VALID,1000.8,VALID,0,VALID,87.9381,VALID,0.100563,VALID,25.0079,VALID,3,VALID,1.09141,
2009-02-06, 01:54:04,VALID,1000.81,VALID,0,VALID,87.961,VALID,0.100563,VALID,25.0079,VALID,349,VALID,0.432031,
2009-02-06, 01:55:04,VALID,1000.81,VALID,0,VALID,87.8771,VALID,0,VALID,24.9885,VALID,351,VALID,0.900391,
2009-02-06, 01:56:04,VALID,1000.81,VALID,0,VALID,87.7626,VALID,0,VALID,24.9885,VALID,311,VALID,0.554297,
2009-02-06, 01:57:04,VALID,1000.79,VALID,0,VALID,87.7779,VALID,0.100563,VALID,24.9866,VALID,345,VALID,0.526953,
2009-02-06, 01:58:04,VALID,1000.8,VALID,0,VALID,87.7474,VALID,0,VALID,25.0079,VALID,345,VALID,0.783594,
2009-02-06, 01:59:04,VALID,1000.77,VALID,0,VALID,87.6406,VALID,0,VALID,25.0079,VALID,353,VALID,1.00898,
2009-02-06, 02:00:04,VALID,1000.8,VALID,0,VALID,87.4727,VALID,0,VALID,25.0274,VALID,348,VALID,1.6418,
2009-02-06, 02:01:04,VALID,1000.77,VALID,0,VALID,87.4575,VALID,0,VALID,25.0274,VALID,355,VALID,1.05547,
2009-02-06, 02:02:04,VALID,1000.81,VALID,0,VALID,87.5567,VALID,0,VALID,25.0469,VALID,345,VALID,0.466406,
2009-02-06, 02:03:04,VALID,1000.76,VALID,0,VALID,87.4804,VALID,0,VALID,25.0274,VALID,316,VALID,0.78125,
2009-02-06, 02:04:04,VALID,1000.76,VALID,0,VALID,87.5261,VALID,0,VALID,25.0488,VALID,359,VALID,1.22773,
2009-02-06, 02:05:04,VALID,1000.74,VALID,0,VALID,87.6253,VALID,0,VALID,25.006,VALID,345,VALID,0.742969,
2009-02-06, 02:06:04,VALID,1000.74,VALID,0,VALID,87.6711,VALID,0,VALID,25.0079,VALID,339,VALID,0.883984,
2009-02-06, 02:07:04,VALID,1000.74,VALID,0,VALID,87.9076,VALID,0,VALID,24.9885,VALID,300,VALID,0.605859,
2009-02-06, 02:08:04,VALID,1000.7,VALID,0,VALID,87.961,VALID,0,VALID,24.969,VALID,348,VALID,0.912109,
2009-02-06, 02:09:04,VALID,1000.67,VALID,0,VALID,87.9534,VALID,0,VALID,24.9495,VALID,356,VALID,0.95625,
2009-02-06, 02:10:04,VALID,1000.63,VALID,0,VALID,88.1059,VALID,0,VALID,24.93,VALID,359,VALID,0.878125,
2009-02-06, 02:11:04,VALID,1000.58,VALID,0,VALID,87.9762,VALID,0.100563,VALID,24.9106,VALID,345,VALID,1.23867,
2009-02-06, 02:12:04,VALID,1000.54,VALID,0,VALID,87.9991,VALID,0.100563,VALID,24.93,VALID,345,VALID,1.14102,
2009-02-06, 02:13:04,VALID,1000.53,VALID,0,VALID,88.1212,VALID,0,VALID,24.93,VALID,1,VALID,0.678516,
2009-02-06, 02:14:04,VALID,1000.48,VALID,0,VALID,88.2509,VALID,0,VALID,24.9106,VALID,2,VALID,0.526953,
2009-02-06, 02:15:04,VALID,1000.48,VALID,0,VALID,88.3272,VALID,0,VALID,24.9106,VALID,305,VALID,0.569922,
2009-02-06, 02:16:04,VALID,1000.53,VALID,0,VALID,88.3272,VALID,0,VALID,24.8911,VALID,270,VALID,0.864062,
2009-02-06, 02:17:04,VALID,1000.53,VALID,0,VALID,88.4035,VALID,0,VALID,24.9106,VALID,20,VALID,0.388672,
2009-02-06, 02:18:04,VALID,1000.55,VALID,0,VALID,88.2433,VALID,0,VALID,24.93,VALID,326,VALID,0.540625,
2009-02-06, 02:19:04,VALID,1000.54,VALID,0,VALID,87.961,VALID,0,VALID,24.9885,VALID,346,VALID,0.423438,
2009-02-06, 02:20:04,VALID,1000.51,VALID,0,VALID,87.6482,VALID,0,VALID,25.0469,VALID,345,VALID,0.805859,
2009-02-06, 02:21:04,VALID,1000.5,VALID,0,VALID,87.5185,VALID,0,VALID,25.0663,VALID,351,VALID,0.773047,
2009-02-06, 02:22:04,VALID,1000.45,VALID,0,VALID,87.4193,VALID,0,VALID,25.1053,VALID,357,VALID,0.699609,
2009-02-06, 02:23:04,VALID,1000.46,VALID,0,VALID,87.4346,VALID,0,VALID,25.1248,VALID,350,VALID,0.487109,
2009-02-06, 02:24:04,VALID,1000.45,VALID,0,VALID,87.2668,VALID,0,VALID,25.1248,VALID,353,VALID,0.953125,
2009-02-06, 02:25:04,VALID,1000.43,VALID,0,VALID,87.2591,VALID,0,VALID,25.1229,VALID,341,VALID,0.767578,
2009-02-06, 02:26:04,VALID,1000.44,VALID,0,VALID,87.3278,VALID,0,VALID,25.1442,VALID,342,VALID,0.2875,
2009-02-06, 02:27:04,VALID,1000.39,VALID,0,VALID,87.3965,VALID,0.100563,VALID,25.1229,VALID,304,VALID,0.500781,
2009-02-06, 02:28:04,VALID,1000.39,VALID,0,VALID,87.3965,VALID,0,VALID,25.1442,VALID,340,VALID,0.280859,
2009-02-06, 02:29:04,VALID,1000.39,VALID,0,VALID,87.4422,VALID,0,VALID,25.1248,VALID,337,VALID,0.436719,
2009-02-06, 02:30:04,VALID,1000.41,VALID,0,VALID,87.5795,VALID,0,VALID,25.1053,VALID,337,VALID,0.154687,
2009-02-06, 02:31:04,VALID,1000.39,VALID,0,VALID,87.6101,VALID,0,VALID,25.0644,VALID,316,VALID,0.621484,
2009-02-06, 02:32:04,VALID,1000.38,VALID,0,VALID,87.6863,VALID,0,VALID,25.0858,VALID,348,VALID,0.198437,
2009-02-06, 02:33:04,VALID,1000.4,VALID,0,VALID,87.755,VALID,0.100563,VALID,25.0858,VALID,316,VALID,0.0867188,
2009-02-06, 02:34:04,VALID,1000.41,VALID,0,VALID,87.6482,VALID,0.100563,VALID,25.0858,VALID,289,VALID,1.19883,
2009-02-06, 02:35:04,VALID,1000.44,VALID,0,VALID,87.6253,VALID,0,VALID,25.0663,VALID,290,VALID,0.791016,
2009-02-06, 02:36:04,VALID,1000.46,VALID,0,VALID,87.7474,VALID,0.100563,VALID,25.0663,VALID,284,VALID,0.978906,
2009-02-06, 02:37:04,VALID,1000.49,VALID,0,VALID,87.7855,VALID,0,VALID,25.0663,VALID,290,VALID,1.02344,
2009-02-06, 02:38:04,VALID,1000.54,VALID,0,VALID,87.9,VALID,0,VALID,25.045,VALID,280,VALID,0.555469,
2009-02-06, 02:39:04,VALID,1000.61,VALID,0,VALID,88.1288,VALID,0,VALID,25.0469,VALID,280,VALID,0.781641,
2009-02-06, 02:40:04,VALID,1000.62,VALID,0,VALID,88.0678,VALID,0.100563,VALID,25.0274,VALID,287,VALID,0.786328,
2009-02-06, 02:41:04,VALID,1000.65,VALID,0,VALID,88.1441,VALID,0.100563,VALID,24.9671,VALID,290,VALID,1.03477,
2009-02-06, 02:42:04,VALID,1000.6,VALID,0,VALID,88.2051,VALID,0,VALID,24.9282,VALID,293,VALID,1.77891,
2009-02-06, 02:43:04,VALID,1000.58,VALID,0,VALID,88.5255,VALID,0,VALID,24.8892,VALID,301,VALID,0.810938,
2009-02-06, 02:44:04,VALID,1000.6,VALID,0,VALID,88.701,VALID,0,VALID,24.8503,VALID,314,VALID,0.951953,
2009-02-06, 02:45:04,VALID,1000.58,VALID,0,VALID,88.9299,VALID,0.100563,VALID,24.8308,VALID,266,VALID,0.513672,
2009-02-06, 02:46:04,VALID,1000.58,VALID,0,VALID,89.0595,VALID,0.100563,VALID,24.8327,VALID,15,VALID,0.876562,
2009-02-06, 02:47:04,VALID,1000.58,VALID,0,VALID,89.0519,VALID,0.100563,VALID,24.7919,VALID,282,VALID,1.325,
2009-02-06, 02:48:04,VALID,1000.59,VALID,0,VALID,88.9299,VALID,0.100563,VALID,24.7919,VALID,302,VALID,1.51914,
2009-02-06, 02:49:04,VALID,1000.62,VALID,0,VALID,88.701,VALID,0.100563,VALID,24.8308,VALID,297,VALID,1.57148,
2009-02-06, 02:50:04,VALID,1000.65,VALID,0,VALID,88.6781,VALID,0.100563,VALID,24.8697,VALID,287,VALID,0.992969,
2009-02-06, 02:51:04,VALID,1000.64,VALID,0,VALID,88.7315,VALID,0.100563,VALID,24.9087,VALID,300,VALID,1.14961,
2009-02-06, 02:52:04,VALID,1000.6,VALID,0.5,VALID,88.9222,VALID,0.100563,VALID,24.8892,VALID,338,VALID,1.16055,
2009-02-06, 02:53:04,VALID,1000.53,VALID,0.5,VALID,89.5631,VALID,0,VALID,24.7705,VALID,1,VALID,0.799609,
2009-02-06, 02:54:04,VALID,1000.5,VALID,0,VALID,90.12,VALID,0.100563,VALID,24.6945,VALID,359,VALID,1.01563,
2009-02-06, 02:55:04,VALID,1000.47,VALID,0,VALID,90.7303,VALID,0,VALID,24.599,VALID,16,VALID,0.876172,
2009-02-06, 02:56:04,VALID,1000.43,VALID,0,VALID,90.9897,VALID,0,VALID,24.5017,VALID,20,VALID,0.760547,
2009-02-06, 02:57:04,VALID,1000.42,VALID,0,VALID,91.3406,VALID,0,VALID,24.4646,VALID,7,VALID,0.661719,
2009-02-06, 02:58:04,VALID,1000.43,VALID,0,VALID,91.6305,VALID,0,VALID,24.3849,VALID,353,VALID,0.641406,
2009-02-06, 02:59:04,VALID,1000.41,VALID,0,VALID,91.8517,VALID,0,VALID,24.3654,VALID,358,VALID,0.634766,
2009-02-06, 03:00:04,VALID,1000.4,VALID,0,VALID,92.0119,VALID,0,VALID,24.3478,VALID,358,VALID,0.712109,
2009-02-06, 03:01:04,VALID,1000.39,VALID,0,VALID,92.0806,VALID,0,VALID,24.307,VALID,353,VALID,0.663672,
2009-02-06, 03:02:04,VALID,1000.41,VALID,0,VALID,92.2027,VALID,0,VALID,24.2681,VALID,352,VALID,0.427344,
2009-02-06, 03:03:04,VALID,1000.42,VALID,0,VALID,92.3781,VALID,0,VALID,24.2681,VALID,303,VALID,0.249609,
2009-02-06, 03:04:04,VALID,1000.42,VALID,0,VALID,92.4697,VALID,0,VALID,24.2486,VALID,303,VALID,0.129297,
2009-02-06, 03:05:04,VALID,1000.43,VALID,0,VALID,92.5536,VALID,0,VALID,24.2486,VALID,4,VALID,0.163672,
2009-02-06, 03:06:04,VALID,1000.43,VALID,0,VALID,92.6146,VALID,0,VALID,24.2291,VALID,338,VALID,0.430859,
2009-02-06, 03:07:04,VALID,1000.39,VALID,0,VALID,92.6833,VALID,0,VALID,24.2097,VALID,337,VALID,0.297656,
2009-02-06, 03:08:04,VALID,1000.39,VALID,0,VALID,92.6909,VALID,0,VALID,24.2097,VALID,348,VALID,0.672656,
2009-02-06, 03:09:04,VALID,1000.39,VALID,0,VALID,92.7214,VALID,0,VALID,24.1902,VALID,354,VALID,0.869922,
2009-02-06, 03:10:04,VALID,1000.4,VALID,0,VALID,92.7748,VALID,0,VALID,24.1707,VALID,358,VALID,0.89375,
2009-02-06, 03:11:04,VALID,1000.39,VALID,0,VALID,92.8282,VALID,0,VALID,24.1707,VALID,359,VALID,0.688281,
2009-02-06, 03:12:04,VALID,1000.4,VALID,0,VALID,92.935,VALID,0,VALID,24.1494,VALID,358,VALID,0.576563,
2009-02-06, 03:13:04,VALID,1000.39,VALID,0,VALID,92.9732,VALID,0,VALID,24.1513,VALID,346,VALID,0.630469,
2009-02-06, 03:14:04,VALID,1000.36,VALID,0,VALID,93.0342,VALID,0,VALID,24.1531,VALID,355,VALID,0.672656,
2009-02-06, 03:15:04,VALID,1000.38,VALID,0,VALID,93.1029,VALID,0,VALID,24.1318,VALID,349,VALID,0.340234,
2009-02-06, 03:16:04,VALID,1000.37,VALID,0,VALID,93.1639,VALID,0,VALID,24.1318,VALID,344,VALID,0.839844,
2009-02-06, 03:17:04,VALID,1000.38,VALID,0,VALID,93.1944,VALID,0,VALID,24.1123,VALID,353,VALID,0.75625,
2009-02-06, 03:18:04,VALID,1000.4,VALID,0,VALID,93.2249,VALID,0,VALID,24.1318,VALID,352,VALID,0.851172,
2009-02-06, 03:19:04,VALID,1000.4,VALID,0,VALID,93.2478,VALID,0,VALID,24.1318,VALID,358,VALID,0.623047,
2009-02-06, 03:20:04,VALID,1000.42,VALID,0,VALID,93.2783,VALID,0,VALID,24.1318,VALID,342,VALID,0.55,
2009-02-06, 03:21:04,VALID,1000.42,VALID,0,VALID,93.2783,VALID,0.100563,VALID,24.1513,VALID,14,VALID,0.668359,
2009-02-06, 03:22:04,VALID,1000.44,VALID,0,VALID,93.3394,VALID,0,VALID,24.1318,VALID,6,VALID,0.794922,
2009-02-06, 03:23:04,VALID,1000.42,VALID,0,VALID,93.3317,VALID,0,VALID,24.13,VALID,3,VALID,0.455078,
2009-02-06, 03:24:04,VALID,1000.39,VALID,0,VALID,93.3546,VALID,0,VALID,24.1707,VALID,3,VALID,0.651953,
2009-02-06, 03:25:04,VALID,1000.39,VALID,0,VALID,93.3546,VALID,0,VALID,24.1707,VALID,349,VALID,0.416797,
2009-02-06, 03:26:04,VALID,1000.39,VALID,0,VALID,93.3851,VALID,0,VALID,24.1513,VALID,20,VALID,0.507031,
2009-02-06, 03:27:04,VALID,1000.4,VALID,0,VALID,93.4156,VALID,0,VALID,24.1707,VALID,19,VALID,0.501953,
2009-02-06, 03:28:04,VALID,1000.4,VALID,0,VALID,93.3928,VALID,0,VALID,24.1902,VALID,17,VALID,0.501562,
2009-02-06, 03:29:04,VALID,1000.4,VALID,0,VALID,93.3088,VALID,0,VALID,24.1707,VALID,340,VALID,0.811328,
2009-02-06, 03:30:04,VALID,1000.44,VALID,0,VALID,93.3241,VALID,0,VALID,24.1902,VALID,321,VALID,0.521875,
2009-02-06, 03:31:04,VALID,1000.42,VALID,0,VALID,93.1868,VALID,0,VALID,24.2115,VALID,1,VALID,0.575,
2009-02-06, 03:32:04,VALID,1000.44,VALID,0,VALID,93.1486,VALID,0,VALID,24.1902,VALID,3,VALID,0.447266,
2009-02-06, 03:33:04,VALID,1000.44,VALID,0,VALID,93.1029,VALID,0,VALID,24.1902,VALID,338,VALID,0.516016,
2009-02-06, 03:34:04,VALID,1000.45,VALID,0,VALID,92.9961,VALID,0,VALID,24.2097,VALID,3,VALID,0.707812,
2009-02-06, 03:35:04,VALID,1000.44,VALID,0,VALID,92.9884,VALID,0,VALID,24.231,VALID,3,VALID,0.319141,
2009-02-06, 03:36:04,VALID,1000.45,VALID,0,VALID,92.9198,VALID,0,VALID,24.2097,VALID,359,VALID,0.572266,
2009-02-06, 03:37:04,VALID,1000.44,VALID,0,VALID,92.8358,VALID,0,VALID,24.231,VALID,345,VALID,0.810547,
2009-02-06, 03:38:04,VALID,1000.44,VALID,0,VALID,92.7977,VALID,0,VALID,24.2097,VALID,349,VALID,0.763672,
2009-02-06, 03:39:04,VALID,1000.44,VALID,0,VALID,92.7596,VALID,0,VALID,24.2097,VALID,335,VALID,0.618359,
2009-02-06, 03:40:04,VALID,1000.4,VALID,0,VALID,92.7062,VALID,0,VALID,24.231,VALID,350,VALID,1.03203,
2009-02-06, 03:41:04,VALID,1000.41,VALID,0,VALID,92.6909,VALID,0,VALID,24.2504,VALID,354,VALID,0.529688,
2009-02-06, 03:42:04,VALID,1000.43,VALID,0,VALID,92.607,VALID,0,VALID,24.1884,VALID,340,VALID,1.03359,